星链-6090 (STARLINK-6090 )

导读 | 豆包AI

STARLINK-6090是由美国太空探索技术公司SpaceX研发的星链互联网卫星,于2023年3月29日发射升空,隶属于星链星座项目。星链项目旨在构建全球卫星互联网通信网络,该卫星承担着为全球偏远地区、海洋等传统网络覆盖盲区提供高速宽带互联网接入服务的任务,进一步扩容了星链星座的服务规模。

Basic Information
目录编号:
56095
目录名称:
STARLINK-6090
国际标识:
2023-046C
轨道中心:
EARTH
卫星名称:
星链-6090
卫星全名:
星链-6090 (STARLINK-6090 )
卫星状态:
在轨 (已飞行1128 天)
发射日期:
2023-03-29 UTC
国别 :
美国 (US)
星等 :
--
Orbit Information
数据来源 国际轨道数据 AOE轨道数据
星历时间 2026-04-30T08:14:29+0800
9小时前
查看轨道信息
2026-04-27T08:00:00+0800
3天前
查看轨道信息
半长轴 6861.204km 6861.186km
偏心率 0.0001309 0.0001619
轨道倾角 43.002° 43.005°
近地点辐角 270.759° 293.401°
升交点赤经 231.441° 248.445°
平近点角 89.311° 54.148°
近地点 482.168km 481.938km
远地点 483.966km 484.16km
周期 94.267分钟 94.267分钟
每日圈数 15.275742 15.275801
Detailed Information
固有亮度:
5
最大亮度:
2.5
卫星平台:
Starlink v1.5
覆盖范围:
全球
运营商:
太空探索技术公司
运营商所在国:
美国
制造商(研发单位):
太空探索技术公司
制造商所在国:
美国
使用方式:
暂无
Satellite Introduction
星链(Starlink)计划是由太空探索技术公司(SpaceX)提出的一个巨型低轨卫星互联网星座项目,计划在2019年至2024年间在太空搭建由约1.2万颗卫星组成的“星链”网络,其中1584颗将部署在地球上空550千米处的近地轨道,并从2020年开始工作。该卫星仍在工作。
2D Orbit Map
3D Orbit Map
Orbit Altitude Analysis Chart
Orbit Inclination Analysis Chart
Orbit Comprehensive Analysis Chart
View Comprehensive Chart